Weather History for KCBF - February, 2014

Change the Weather History Date:

Friday, February 14, 2014

  Actual Average Record
Temperature  
Mean Temperature 20 °F -  
Max Temperature 26 °F 37 °F 66 °F (2006)
Min Temperature 15 °F 22 °F -4 °F (2007)
Degree Days  
Heating Degree Days 44    
Moisture  
Dew Point 14 °F    
Average Humidity 74    
Maximum Humidity 100    
Minimum Humidity 51    
Precipitation  
Precipitation 0.05 in - - ()
Sea Level Pressure  
Sea Level Pressure 29.91 in    
Wind  
Wind Speed 11 mph (North)    
Max Wind Speed 20 mph    
Max Gust Speed 26 mph    
Visibility 10 miles    
Events Snow    
Averages and records for this station are not official NWS values.
T = Trace of Precipitation, MM = Missing Value Source: NWS Daily Summary

Daily Weather History Graph

Daily Weather History Graph

Search for Another Location

Airport or City:

Trip Planner

Search our weather history database for the weather conditions in past years. The results will help you decide how hot, cold, wet, or windy it might be!

Date:

Astronomy

Feb. 14, 2014 Rise Set
Actual Time 7:19 AM CST 5:55 PM CST
Civil Twilight 6:50 AM CST 6:24 PM CST
Nautical Twilight 6:18 AM CST 6:56 PM CST
Astronomical Twilight 5:46 AM CST 7:28 PM CST
Moon 6:01 PM CST (2/14) 6:46 AM CST (2/14)
Length of Visible Light 11h 33m
Length of Day
10h 36m
Full, 100% of the Moon is Illuminated
Feb 14
Full
Feb 14
Full
Feb 22
Last Quarter
Mar 1
New
Mar 8
First Quarter

Hourly Weather History & Observations

Time (CST) Temp. Windchill Dew Point Humidity Pressure Visibility Wind Dir Wind Speed Gust Speed Precip Events Conditions
12:15 AM 24.8 °F 16.1 °F 17.6 °F 74% 29.70 in 10.0 mi NE 8.1 mph - N/A   Overcast
12:35 AM 24.8 °F 14.6 °F 17.6 °F 74% 29.72 in 10.0 mi NNE 10.4 mph - N/A   Mostly Cloudy
12:55 AM 24.8 °F 15.3 °F 15.8 °F 69% 29.71 in 4.0 mi East 9.2 mph - 0.01 in Snow Light Snow
1:15 AM 23.0 °F 13.1 °F 19.4 °F 86% 29.70 in 2.0 mi ESE 9.2 mph - N/A Snow Light Snow
1:35 AM 23.0 °F 10.1 °F 21.2 °F 93% 29.66 in 10.0 mi East 15.0 mph - N/A   Mostly Cloudy
1:55 AM 23.0 °F 12.4 °F 21.2 °F 93% 29.67 in 10.0 mi ENE 10.4 mph - 0.01 in   Overcast
2:15 AM 23.0 °F 12.4 °F 21.2 °F 93% 29.66 in 10.0 mi East 10.4 mph - N/A   Overcast
2:35 AM 23.0 °F 13.1 °F 21.2 °F 93% 29.67 in 7.0 mi ENE 9.2 mph - N/A Snow Light Snow
2:55 AM 23.0 °F 14.7 °F 21.2 °F 93% 29.66 in 3.0 mi East 6.9 mph - 0.02 in Snow Light Snow
3:15 AM 23.0 °F 11.1 °F 21.2 °F 93% 29.63 in 9.0 mi East 12.7 mph 19.6 mph N/A   Mostly Cloudy
3:35 AM 23.0 °F 11.7 °F 21.2 °F 93% 29.66 in 10.0 mi NNE 11.5 mph 17.3 mph N/A   Overcast
3:55 AM 23.0 °F 11.7 °F 21.2 °F 93% 29.69 in 10.0 mi North 11.5 mph - 0.01 in   Overcast
4:15 AM 21.2 °F 9.5 °F 21.2 °F 100% 29.69 in 10.0 mi North 11.5 mph - N/A   Overcast
4:35 AM 21.2 °F 9.5 °F 19.4 °F 93% 29.69 in 10.0 mi North 11.5 mph 18.4 mph N/A   Overcast
4:55 AM 21.2 °F 8.9 °F 19.4 °F 93% 29.70 in 10.0 mi North 12.7 mph - N/A   Overcast
5:15 AM 21.2 °F 7.3 °F 19.4 °F 93% 29.73 in 10.0 mi North 16.1 mph - N/A   Overcast
5:35 AM 19.4 °F 4.5 °F 17.6 °F 93% 29.74 in 10.0 mi North 17.3 mph - N/A   Overcast
5:55 AM 19.4 °F 5.0 °F 17.6 °F 93% 29.76 in 10.0 mi North 16.1 mph - N/A   Overcast
6:15 AM 19.4 °F 6.6 °F 15.8 °F 86% 29.78 in 10.0 mi North 12.7 mph 21.9 mph N/A   Overcast
6:35 AM 19.4 °F 6.0 °F 15.8 °F 86% 29.79 in 10.0 mi North 13.8 mph 20.7 mph N/A   Overcast
6:55 AM 19.4 °F 6.6 °F 15.8 °F 86% 29.81 in 10.0 mi North 12.7 mph 20.7 mph N/A   Overcast
7:15 AM 19.4 °F 5.5 °F 15.8 °F 86% 29.82 in 10.0 mi North 15.0 mph - N/A   Overcast
7:35 AM 17.6 °F 3.7 °F 14.0 °F 86% 29.83 in 10.0 mi North 13.8 mph 21.9 mph N/A   Overcast
7:55 AM 17.6 °F 3.7 °F 14.0 °F 86% 29.85 in 10.0 mi North 13.8 mph - N/A   Overcast
8:15 AM 17.6 °F 6.4 °F 14.0 °F 86% 29.87 in 10.0 mi North 9.2 mph 17.3 mph N/A   Overcast
8:35 AM 19.4 °F 7.2 °F 14.0 °F 80% 29.87 in 10.0 mi North 11.5 mph - N/A   Overcast
8:55 AM 19.4 °F 6.0 °F 14.0 °F 80% 29.88 in 10.0 mi North 13.8 mph 20.7 mph N/A   Overcast
9:15 AM 17.6 °F 2.7 °F 14.0 °F 86% 29.90 in 10.0 mi North 16.1 mph - N/A   Overcast
9:35 AM 17.6 °F 2.7 °F 14.0 °F 86% 29.92 in 10.0 mi NNW 16.1 mph 24.2 mph N/A   Overcast
9:55 AM 19.4 °F 5.0 °F 14.0 °F 80% 29.93 in 10.0 mi North 16.1 mph - N/A   Overcast
10:15 AM 19.4 °F 7.2 °F 14.0 °F 80% 29.94 in 10.0 mi North 11.5 mph 20.7 mph N/A   Mostly Cloudy
10:35 AM 21.2 °F 10.1 °F 15.8 °F 80% 29.95 in 10.0 mi North 10.4 mph - N/A   Mostly Cloudy
10:55 AM 21.2 °F 8.9 °F 14.0 °F 74% 29.96 in 10.0 mi North 12.7 mph - N/A   Mostly Cloudy
11:15 AM 21.2 °F 7.8 °F 15.8 °F 80% 29.98 in 10.0 mi NNW 15.0 mph - N/A   Overcast
11:35 AM 21.2 °F 9.5 °F 14.0 °F 74% 29.98 in 10.0 mi North 11.5 mph 20.7 mph N/A   Overcast
11:55 AM 21.2 °F 8.9 °F 15.8 °F 80% 29.99 in 10.0 mi NW 12.7 mph - N/A   Overcast
12:15 PM 23.0 °F 11.1 °F 15.8 °F 74% 29.99 in 10.0 mi NW 12.7 mph 21.9 mph N/A   Overcast
12:35 PM 23.0 °F 10.1 °F 15.8 °F 74% 29.99 in 10.0 mi NW 15.0 mph - N/A   Overcast
12:55 PM 23.0 °F 9.6 °F 14.0 °F 68% 29.99 in 10.0 mi NW 16.1 mph - N/A   Mostly Cloudy
1:15 PM 23.0 °F 8.7 °F 15.8 °F 74% 29.99 in 10.0 mi NW 18.4 mph - N/A   Scattered Clouds
1:35 PM 23.0 °F 10.6 °F 14.0 °F 68% 29.99 in 10.0 mi NW 13.8 mph 24.2 mph N/A   Mostly Cloudy
1:55 PM 24.8 °F 11.9 °F 14.0 °F 64% 29.99 in 10.0 mi NNW 16.1 mph 25.3 mph N/A   Partly Cloudy
2:15 PM 24.8 °F 11.9 °F 14.0 °F 64% 30.00 in 10.0 mi NNW 16.1 mph - N/A   Clear
2:35 PM 24.8 °F 10.7 °F 14.0 °F 64% 29.99 in 10.0 mi NNW 19.6 mph - N/A   Clear
2:55 PM 24.8 °F 11.9 °F 12.2 °F 59% 29.99 in 10.0 mi NNW 16.1 mph 26.5 mph N/A   Clear
3:15 PM 24.8 °F 11.5 °F 12.2 °F 59% 30.00 in 10.0 mi North 17.3 mph 25.3 mph N/A   Clear
3:35 PM 26.6 °F 14.7 °F 12.2 °F 55% 30.01 in 10.0 mi NNW 15.0 mph - N/A   Clear
3:55 PM 26.6 °F 14.7 °F 12.2 °F 55% 30.01 in 10.0 mi NNW 15.0 mph - N/A   Clear
4:15 PM 26.6 °F 15.2 °F 12.2 °F 55% 30.02 in 10.0 mi NW 13.8 mph - N/A   Clear
4:35 PM 26.6 °F 16.2 °F 12.2 °F 55% 30.03 in 10.0 mi NW 11.5 mph 17.3 mph N/A   Clear
4:55 PM 26.6 °F 16.8 °F 10.4 °F 51% 30.03 in 10.0 mi NNW 10.4 mph 17.3 mph N/A   Clear
5:15 PM 24.8 °F 14.6 °F 10.4 °F 54% 30.05 in 10.0 mi NW 10.4 mph 17.3 mph N/A   Clear
5:35 PM 24.8 °F 14.6 °F 10.4 °F 54% 30.05 in 10.0 mi NW 10.4 mph - N/A   Clear
5:55 PM 24.8 °F 14.6 °F 10.4 °F 54% 30.06 in 10.0 mi NW 10.4 mph - N/A   Clear
6:15 PM 23.0 °F 14.7 °F 10.4 °F 59% 30.06 in 10.0 mi NNW 6.9 mph - N/A   Clear
6:35 PM 21.2 °F 12.6 °F 8.6 °F 58% 30.06 in 10.0 mi North 6.9 mph - N/A   Clear
6:55 PM 21.2 °F 11.7 °F 10.4 °F 63% 30.05 in 10.0 mi North 8.1 mph - N/A   Clear
7:15 PM 21.2 °F 14.9 °F 10.4 °F 63% 30.04 in 10.0 mi North 4.6 mph - N/A   Clear
7:35 PM 21.2 °F 16.4 °F 8.6 °F 58% 30.04 in 10.0 mi NW 3.5 mph - N/A   Clear
7:55 PM 21.2 °F 14.9 °F 8.6 °F 58% 30.04 in 10.0 mi NNW 4.6 mph - N/A   Clear
8:15 PM 17.6 °F - 8.6 °F 68% 30.05 in 10.0 mi Calm Calm - N/A   Clear
8:35 PM 19.4 °F - 8.6 °F 63% 30.06 in 10.0 mi Calm Calm - N/A   Clear
8:55 PM 19.4 °F - 8.6 °F 63% 30.08 in 10.0 mi Calm Calm - N/A   Clear
9:15 PM 19.4 °F - 8.6 °F 63% 30.08 in 10.0 mi Calm Calm - N/A   Clear
9:35 PM 19.4 °F - 8.6 °F 63% 30.08 in 10.0 mi Calm Calm - N/A   Clear
9:55 PM 17.6 °F 10.7 °F 8.6 °F 68% 30.07 in 10.0 mi NE 4.6 mph - N/A   Clear
10:15 PM 17.6 °F 9.3 °F 8.6 °F 68% 30.05 in 10.0 mi NE 5.8 mph - N/A   Clear
10:35 PM 19.4 °F 11.5 °F 8.6 °F 63% 30.05 in 10.0 mi NE 5.8 mph - N/A   Clear
10:55 PM 17.6 °F 10.7 °F 8.6 °F 68% 30.05 in 10.0 mi East 4.6 mph - N/A   Clear
11:15 PM 17.6 °F 9.3 °F 8.6 °F 68% 30.05 in 10.0 mi East 5.8 mph - N/A   Clear
11:35 PM 15.8 °F 6.1 °F 8.6 °F 73% 30.04 in 10.0 mi ESE 6.9 mph - N/A   Clear
11:55 PM 15.8 °F 6.1 °F 8.6 °F 73% 30.04 in 10.0 mi SE 6.9 mph - N/A   Clear